CAPE
0 0 0 0 1 2 3 3 1 0 0 0 0 0 1 0 0 0 0 0 0 0 0 0 0 0 113 325 509 921 0 0 0 0 0 0 0 0 0 0 0 227 760 1490 1596
1 2 2 2 1 2 4 5 2 0 0 1 0 0 0 1 0 0 0 0 0 382 0 0 0 0 0 0 27 122 0 0 0 0 0 0 0 0 0 0 0 67 1486 1624 1651
2 2 2 3 2 3 3 3 4 0 1 1 0 0 1 0 0 0 0 0 22 72 0 0 0 0 0 0 4 10 0 0 0 0 0 0 0 0 0 0 0 0 579 1823 1777
2 3 4 4 3 2 2 2 3 0 1 1 0 0 0 0 0 0 0 0 15 0 0 0 0 0 0 0 0 0 0 0 0 0 0 0 0 0 0 0 0 0 0 1699 1874
1 2 3 4 3 2 0 1 3 1 1 0 0 1 0 0 0 0 25 12 0 0 0 0 0 0 0 0 0 0 0 0 0 0 0 0 0 0 0 0 0 0 0 1220 1654
1 1 1 2 2 0 0 1 0 0 0 0 0 0 0 0 0 0 0 0 0 0 0 0 0 0 0 0 0 0 0 0 0 0 0 0 0 0 0 0 0 163 307 767 1262
1 1 1 1 1 0 0 0 0 0 0 0 0 0 0 0 0 0 0 0 0 0 0 0 0 0 0 0 0 0 0 0 0 0 0 0 0 0 0 0 0 254 753 1038 1265
1 1 1 1 0 0 0 0 0 0 0 0 0 0 0 0 0 0 0 0 0 0 0 0 0 0 0 0 0 0 0 0 0 0 0 0 0 0 0 9 29 226 839 1211 1582
1 1 0 0 0 0 0 0 0 0 0 0 0 0 0 0 0 0 0 0 0 0 0 0 0 0 0 0 0 0 0 0 0 0 0 0 0 0 0 29 274 377 668 1018 1380
1 1 0 0 0 0 0 0 0 0 0 0 0 0 0 0 0 0 0 0 0 0 0 0 0 0 0 0 0 0 0 0 0 0 0 0 0 0 0 0 3 119 465 792 971
2 1 0 0 0 0 0 0 0 0 0 0 0 0 0 0 0 0 0 0 0 0 0 0 0 0 0 0 0 0 0 0 0 0 0 0 0 0 0 0 0 0 16 161 617
3 1 0 0 0 0 0 0 0 0 0 0 0 0 0 0 0 0 0 0 0 0 0 0 0 0 0 0 0 0 0 0 0 0 0 0 0 0 0 0 0 0 0 0 44
2 1 0 0 0 0 0 0 0 0 0 0 0 0 0 0 0 0 0 0 0 0 0 0 0 0 0 0 0 0 0 0 0 0 0 0 0 0 0 0 0 0 0 0 0
1 1 0 0 0 0 0 0 0 0 0 0 0 0 0 0 0 0 0 0 0 0 0 0 0 0 0 0 0 0 0 0 0 0 0 0 0 0 0 0 0 0 0 0 0
0 0 0 0 0 0 0 0 0 0 0 0 0 0 0 0 0 0 0 0 0 0 0 0 0 0 0 0 0 0 0 0 0 0 0 0 0 0 0 0 0 0 0 0 0
0 0 0 0 0 0 0 0 0 0 0 0 0 0 0 0 0 0 0 0 0 0 0 0 0 0 0 0 0 0 0 0 0 0 0 0 0 0 0 0 0 0 0 0 0
0 0 0 0 0 0 0 0 0 0 0 0 0 0 0 0 0 0 0 0 0 0 0 0 0 0 0 0 0 0 0 0 0 0 0 0 0 0 0 0 0 0 0 0 34
0 0 0 0 0 0 0 0 0 0 0 0 0 0 0 0 0 0 0 0 0 0 0 0 0 0 0 0 0 0 0 0 0 0 0 0 0 0 0 0 0 0 0 0 16
0 0 0 0 0 0 0 0 0 0 0 0 0 0 0 0 0 0 0 0 0 0 0 0 0 0 0 0 0 0 0 0 0 0 0 0 0 0 0 0 0 0 0 2 115
0 0 0 0 0 0 0 0 0 0 0 0 0 0 0 0 0 0 0 0 0 0 0 0 0 0 0 0 0 0 0 0 0 0 0 0 0 0 0 0 0 0 1 140 315
0 0 0 0 0 0 0 0 0 0 0 0 0 0 0 0 0 0 0 0 0 0 0 0 0 0 0 0 0 0 0 0 0 0 0 0 0 0 0 0 0 0 0 101 107
0 0 0 0 0 0 0 0 0 0 0 0 0 0 0 0 0 0 0 0 0 0 0 0 0 0 0 0 0 0 0 0 0 0 0 0 0 0 0 0 0 0 31 99 129
0 0 0 0 0 0 0 0 0 0 0 0 0 0 0 0 0 0 0 0 0 0 0 0 0 0 0 0 0 0 0 0 0 0 0 0 0 0 0 0 18 23 84 53 39
0 0 0 0 0 0 0 0 0 0 0 0 0 0 0 0 0 0 0 0 0 0 0 0 0 0 0 0 0 0 0 0 0 0 0 0 0 0 0 14 24 60 11 6 64
0 0 0 0 0 0 0 0 0 0 0 0 0 0 0 0 0 0 0 0 0 0 0 0 0 0 0 0 0 0 0 0 0 0 0 0 0 0 14 74 100 6 16 41 154
0 0 0 0 0 0 0 0 0 0 0 0 0 0 0 0 0 0 0 0 0 0 0 0 0 0 0 0 0 0 0 0 0 0 0 0 0 100 55 65 94 43 46 101 136
0 0 0 0 0 0 0 0 0 0 0 0 0 0 0 0 0 0 0 0 0 0 0 0 0 0 0 0 0 0 0 0 0 0 2 40 64 36 45 95 69 72 145 50 7
CIN
-0 -0 -0 -0 -0 -0 -0 -0 -0 -0 -0 -0 -0 -0 -0 -0 -0 -0 -0 -0 -0 -0 -0 -0 -0 -0 -209 -91 -88 -53 -0 -0 -0 -0 -0 -0 -0 -0 -0 -0 -0 -37 -34 -43 -166
-0 -0 -0 -0 -0 -0 -0 -0 -0 -0 -0 -0 -0 -0 -0 -0 -0 -0 -0 -0 -0 -586 -0 -0 -0 -0 -0 -0 -155 -44 -0 -0 -0 -0 -0 -0 -0 -0 -0 -0 -0 -18 -127 -120 -192
-0 -0 -0 -0 -0 -0 -0 -0 -0 -0 -0 -0 -0 -0 -0 -0 -0 -0 -0 -0 -875 -265 -0 -0 -0 -0 -0 -0 -107 -128 -0 -0 -0 -0 -0 -0 -0 -0 -0 -0 -0 -0 -69 -144 -195
-0 -0 -0 -0 -0 -0 -0 -0 -0 -0 -0 -0 -0 -0 -0 -0 -0 -0 -7 -0 -832 -0 -0 -0 -0 -0 -0 -0 -0 -0 -0 -0 -0 -0 -0 -0 -0 -0 -0 -0 -0 -0 -0 -132 -176
-0 -0 -0 -0 -0 -0 -0 -0 -0 -0 -0 -0 -0 -0 -0 -0 -0 -0 -527 -100 -0 -0 -0 -0 -0 -0 -0 -0 -0 -0 -0 -0 -0 -0 -0 -0 -0 -0 -0 -0 -0 -0 -0 -108 -158
-0 -0 -0 -0 -0 -0 -0 -0 -0 -0 -0 -0 -0 -0 -0 -0 -0 -0 -0 -0 -0 -0 -0 -0 -0 -0 -0 -0 -0 -0 -0 -0 -0 -0 -0 -0 -0 -0 -0 -0 -0 -90 -92 -110 -145
-0 -0 -0 -0 -0 -0 -0 -0 -0 -0 -0 -0 -0 -0 -0 -0 -0 -0 -0 -0 -0 -0 -0 -0 -0 -0 -0 -0 -0 -0 -0 -0 -0 -0 -0 -0 -0 -0 -0 -0 -0 -84 -97 -138 -141
-0 -0 -0 -0 -0 -0 -0 -0 -0 -0 -0 -0 -0 -0 -0 -0 -0 -0 -0 -0 -0 -0 -0 -0 -0 -0 -0 -0 -0 -0 -0 -0 -0 -0 -0 -0 -0 -0 -0 -73 -118 -120 -109 -156 -156
-0 -0 -0 -0 -0 -0 -0 -0 -0 -0 -0 -0 -0 -0 -0 -0 -0 -0 -0 -0 -0 -0 -0 -0 -0 -0 -0 -0 -0 -0 -0 -0 -0 -0 -0 -0 -0 -0 -0 -65 -79 -109 -128 -125 -125
-0 -0 -0 -0 -0 -0 -0 -0 -0 -0 -0 -0 -0 -0 -0 -0 -0 -0 -0 -0 -0 -0 -0 -0 -0 -0 -0 -0 -0 -0 -0 -0 -0 -0 -0 -0 -0 -0 -0 -0 -24 -84 -86 -113 -133
-0 -0 -0 -0 -0 -0 -0 -0 -0 -0 -0 -0 -0 -0 -0 -0 -0 -0 -0 -0 -0 -0 -0 -0 -0 -0 -0 -0 -0 -0 -0 -0 -0 -0 -0 -0 -0 -0 -0 -0 -0 -0 -190 -121 -138
-0 -0 -0 -0 -0 -0 -0 -0 -0 -0 -0 -0 -0 -0 -0 -0 -0 -0 -0 -0 -0 -0 -0 -0 -0 -0 -0 -0 -0 -0 -0 -0 -0 -0 -0 -0 -0 -0 -0 -0 -0 -0 -0 -0 -196
-0 -0 -0 -0 -0 -0 -0 -0 -0 -0 -0 -0 -0 -0 -0 -0 -0 -0 -0 -0 -0 -0 -0 -0 -0 -0 -0 -0 -0 -0 -0 -0 -0 -0 -0 -0 -0 -0 -0 -0 -0 -0 -0 -0 -0
-0 -0 -0 -0 -0 -0 -0 -0 -0 -0 -0 -0 -0 -0 -0 -0 -0 -0 -0 -0 -0 -0 -0 -0 -0 -0 -0 -0 -0 -0 -0 -0 -0 -0 -0 -0 -0 -0 -0 -0 -0 -0 -0 -0 -0
-0 -0 -0 -0 -0 -0 -0 -0 -0 -0 -0 -0 -0 -0 -0 -0 -0 -0 -0 -0 -0 -0 -0 -0 -0 -0 -0 -0 -0 -0 -0 -0 -0 -0 -0 -0 -0 -0 -0 -0 -0 -0 -0 -0 -0
-0 -0 -0 -0 -0 -0 -0 -0 -0 -0 -0 -0 -0 -0 -0 -0 -0 -0 -0 -0 -0 -0 -0 -0 -0 -0 -0 -0 -0 -0 -0 -0 -0 -0 -0 -0 -0 -0 -0 -0 -0 -0 -0 -0 -0
-0 -0 -0 -0 -0 -0 -0 -0 -0 -0 -0 -0 -0 -0 -0 -0 -0 -0 -0 -0 -0 -0 -0 -0 -0 -0 -0 -0 -0 -0 -0 -0 -0 -0 -0 -0 -0 -0 -0 -0 -0 -0 -0 -0 -135
-0 -0 -0 -0 -0 -0 -0 -0 -0 -0 -0 -0 -0 -0 -0 -0 -0 -0 -0 -0 -0 -0 -0 -0 -0 -0 -0 -0 -0 -0 -0 -0 -0 -0 -0 -0 -0 -0 -0 -0 -0 -0 -0 -0 -110
-0 -0 -0 -0 -0 -0 -0 -0 -0 -0 -0 -0 -0 -0 -0 -0 -0 -0 -0 -0 -0 -0 -0 -0 -0 -0 -0 -0 -0 -0 -0 -0 -0 -0 -0 -0 -0 -0 -0 -0 -0 -0 -0 -10 -30
-0 -0 -0 -0 -0 -0 -0 -0 -0 -0 -0 -0 -0 -0 -0 -0 -0 -0 -0 -0 -0 -0 -0 -0 -0 -0 -0 -0 -0 -0 -0 -0 -0 -0 -0 -0 -0 -0 -0 -0 -0 -0 -0 -6 -16
-0 -0 -0 -0 -0 -0 -0 -0 -0 -0 -0 -0 -0 -0 -0 -0 -0 -0 -0 -0 -0 -0 -0 -0 -0 -0 -0 -0 -0 -0 -0 -0 -0 -0 -0 -0 -0 -0 -0 -0 -0 -0 -0 -33 -42
-0 -0 -0 -0 -0 -0 -0 -0 -0 -0 -0 -0 -0 -0 -0 -0 -0 -0 -0 -0 -0 -0 -0 -0 -0 -0 -0 -0 -0 -0 -0 -0 -0 -0 -0 -0 -0 -0 -0 -0 -0 -0 -80 -52 -40
-0 -0 -0 -0 -0 -0 -0 -0 -0 -0 -0 -0 -0 -0 -0 -0 -0 -0 -0 -0 -0 -0 -0 -0 -0 -0 -0 -0 -0 -0 -0 -0 -0 -0 -0 -0 -0 -0 -0 -0 -1 -1 -41 -62 -75
-0 -0 -0 -0 -0 -0 -0 -0 -0 -0 -0 -0 -0 -0 -0 -0 -0 -0 -0 -0 -0 -0 -0 -0 -0 -0 -0 -0 -0 -0 -0 -0 -0 -0 -0 -0 -0 -0 -0 -0 -0 -38 -25 -29 -59
-0 -0 -0 -0 -0 -0 -0 -0 -0 -0 -0 -0 -0 -0 -0 -0 -0 -0 -0 -0 -0 -0 -0 -0 -0 -0 -0 -0 -0 -0 -0 -0 -0 -0 -0 -0 -0 -0 -0 -15 -16 -2 -18 -51 -20
-0 -0 -0 -0 -0 -0 -0 -0 -0 -0 -0 -0 -0 -0 -0 -0 -0 -0 -0 -0 -0 -0 -0 -0 -0 -0 -0 -0 -0 -0 -0 -0 -0 -0 -0 -0 -0 -2 -18 -0 -24 -5 -33 -14 -20
-0 -0 -0 -0 -0 -0 -0 -0 -0 -0 -0 -0 -0 -0 -0 -0 -0 -0 -0 -0 -0 -0 -0 -0 -0 -0 -0 -0 -0 -0 -0 -0 -0 -0 -0 -0 -0 -10 -5 -8 -3 -22 -6 -25 -39
Wind_Speed
19 19 18 18 17 17 16 16 16 14 13 12 10 9 9 9 9 8 9 1 4 17 11 12 9 8 8 6 7 4 8 3 1 3 6 8 13 10 9 6 4 1 7 7 23
20 20 20 20 19 18 17 16 15 14 12 11 9 9 8 6 8 11 5 7 14 13 16 16 11 11 8 6 5 10 5 4 5 7 8 9 10 11 14 12 7 4 5 14 24
21 21 21 21 21 19 18 16 14 13 12 10 9 8 7 8 7 5 6 10 16 15 11 8 8 11 9 6 5 2 8 4 7 6 10 14 14 11 10 11 14 12 8 18 21
21 22 21 21 22 20 19 17 15 13 11 10 9 7 6 7 2 5 1 13 15 11 12 9 10 9 8 7 4 10 4 7 10 12 13 14 13 11 6 11 15 13 6 18 22
22 22 22 22 21 21 20 19 15 12 9 8 7 7 7 7 5 7 12 13 18 9 13 10 9 7 8 4 4 10 9 7 10 12 11 9 4 5 7 15 13 9 4 15 17
23 23 23 22 22 21 20 18 14 8 5 5 7 7 7 5 4 7 13 17 13 10 9 8 4 4 2 4 7 6 10 12 6 2 2 5 5 4 12 15 11 8 2 9 14
23 24 23 23 22 21 19 17 13 4 5 7 8 6 5 8 3 9 12 6 11 8 6 7 4 9 0 5 1 9 10 4 2 2 3 4 7 9 12 11 12 11 6 2 6
24 24 24 24 22 20 18 14 7 5 7 8 9 6 4 4 6 9 7 6 7 4 3 2 5 5 6 2 7 6 6 9 8 5 4 5 11 10 11 10 12 13 9 4 3
24 25 25 24 23 19 16 11 2 5 6 8 8 6 9 5 6 8 9 4 8 5 4 3 6 5 6 10 8 6 0 1 5 3 4 6 6 9 9 10 12 13 12 8 5
25 25 25 25 24 18 14 7 4 7 7 7 5 6 7 6 6 6 7 6 4 8 7 8 7 8 7 8 2 4 2 3 0 4 3 1 5 6 7 10 12 13 13 13 10
25 25 26 25 24 19 9 6 6 7 6 6 4 3 5 1 4 8 8 9 6 7 7 5 9 3 6 3 4 4 5 4 3 3 5 2 2 5 5 8 10 11 12 12 12
26 26 27 26 25 19 9 5 5 6 4 2 3 5 5 2 5 9 10 10 8 6 5 8 2 3 2 3 5 5 5 2 2 1 8 6 6 3 3 7 9 11 11 12 12
25 25 27 26 23 7 7 7 6 3 6 4 1 1 2 8 5 12 12 4 5 6 6 5 9 5 4 5 7 3 6 5 8 7 9 7 13 10 6 6 6 10 10 12 12
26 24 24 32 6 4 3 5 8 5 7 8 6 6 7 4 6 3 8 3 5 2 4 2 5 1 0 3 6 3 5 8 10 11 9 4 10 9 8 5 4 8 12 13 13
26 24 22 12 8 3 6 9 2 6 6 6 7 5 4 6 6 7 4 6 4 5 7 8 3 3 4 4 5 7 8 9 12 13 10 11 8 11 7 7 4 6 9 11 13
27 25 22 5 4 5 8 6 6 8 3 7 5 6 10 6 5 6 6 5 3 4 3 3 2 2 4 1 2 8 9 13 8 10 11 5 6 2 4 3 3 8 9 10 10
29 26 13 4 5 8 8 5 7 7 4 7 5 5 5 5 7 6 10 11 8 9 9 6 6 6 2 8 7 9 10 7 6 7 3 5 8 6 7 4 5 7 10 9 9
30 24 5 4 7 7 6 7 7 3 0 3 2 6 7 4 4 6 8 9 3 7 4 6 9 7 2 5 7 4 8 6 7 6 6 7 7 5 3 3 1 5 9 8 9
30 3 4 4 3 6 7 8 4 0 1 3 7 10 7 6 3 7 3 3 2 2 5 4 5 5 3 1 6 6 2 6 9 7 9 3 2 9 5 3 3 10 8 9 10
8 6 1 8 4 7 6 5 1 2 3 5 9 4 9 6 9 8 8 3 6 2 3 4 6 6 6 4 4 7 4 7 4 7 9 5 8 9 8 6 11 11 9 9 9
6 6 6 7 5 6 7 1 2 2 3 5 4 5 3 4 4 4 4 6 0 5 2 2 5 8 5 10 4 8 9 3 7 6 9 10 2 6 5 6 10 13 11 11 12
5 5 5 6 6 1 5 0 1 2 2 4 4 3 6 4 5 5 7 2 2 1 4 2 6 9 7 6 3 6 5 8 7 5 8 11 13 6 4 6 11 11 11 11 13
7 4 1 5 6 7 4 4 2 3 0 3 6 4 3 5 4 3 5 5 2 1 1 2 5 9 12 11 9 9 8 9 8 7 12 11 9 3 5 13 10 10 10 12 14
6 3 4 2 2 7 3 5 6 2 2 2 1 5 7 7 4 6 7 5 2 4 2 2 8 9 12 13 8 9 12 11 12 9 15 15 19 16 13 14 10 10 11 11 12
2 4 5 1 5 3 5 2 7 7 2 2 5 5 8 8 8 7 5 7 6 6 5 5 9 12 12 14 16 16 18 16 19 20 20 18 20 17 14 10 8 7 8 12 14
6 5 1 4 4 6 5 6 8 4 4 5 7 1 4 8 7 6 7 4 5 7 7 2 9 10 15 16 17 20 20 21 22 21 19 18 16 8 8 10 8 8 9 11 15
3 1 6 2 4 6 5 4 4 3 4 2 4 7 8 6 4 4 6 2 3 6 7 6 8 7 14 6 9 14 19 18 14 11 12 12 13 13 12 10 7 7 8 9 10
Wind_Direction
342 338 334 329 324 321 319 319 319 316 311 309 310 309 312 315 290 202 237 112 153 161 184 157 181 179 202 234 240 254 254 257 107 308 333 348 335 349 343 294 25 356 343 91 146
339 335 332 328 325 322 319 316 316 311 307 305 301 301 305 307 254 241 122 138 143 178 165 172 176 181 205 227 214 256 282 10 14 320 319 314 328 330 319 333 8 129 99 138 159
337 334 331 327 324 323 318 314 310 306 300 294 291 291 290 278 250 98 90 153 166 197 184 194 173 200 228 231 187 218 292 5 304 338 319 317 307 328 303 315 351 349 150 165 172
335 332 328 326 324 324 320 316 310 303 290 279 275 271 270 233 131 61 183 159 169 190 174 176 184 209 237 225 205 263 248 290 301 315 308 299 319 313 351 351 339 320 289 180 185
332 329 328 328 325 323 321 316 310 302 281 266 249 233 229 204 81 64 118 143 168 187 188 195 199 227 236 236 239 250 292 300 293 296 294 310 312 344 354 351 337 338 210 188 196
331 330 328 329 328 327 325 320 314 299 257 220 208 209 238 173 92 124 130 151 178 193 188 216 234 247 258 250 264 353 292 291 293 342 157 311 85 3 4 345 5 20 107 195 200
331 329 329 330 330 329 327 325 318 288 193 188 192 236 245 79 99 147 160 172 171 200 191 205 232 224 123 245 275 281 281 166 130 14 98 330 115 26 358 351 12 17 48 93 194
331 329 329 330 331 331 328 328 4 121 147 169 190 242 65 112 115 163 180 144 183 218 263 172 230 271 267 334 234 259 250 184 100 337 61 295 84 34 360 9 28 31 40 63 145
330 330 329 329 330 332 327 323 94 134 143 160 216 266 120 133 201 176 196 190 167 169 151 148 224 268 211 239 205 212 68 288 132 92 326 324 35 39 13 38 39 39 43 39 63
331 329 329 327 328 331 321 269 116 159 191 229 258 230 158 130 117 135 185 183 163 153 168 213 222 227 202 241 343 357 289 128 242 69 232 130 66 71 33 48 51 50 52 51 44
332 329 329 328 328 325 294 197 220 176 207 342 17 320 102 55 199 184 174 190 191 218 222 195 234 210 23 331 337 306 298 305 116 82 261 61 70 51 33 43 52 50 42 51 50
334 331 329 330 326 314 273 47 40 345 296 189 279 261 249 288 176 150 181 201 206 200 190 203 180 59 276 293 253 242 277 42 196 144 270 186 200 162 68 57 48 46 46 41 39
334 333 328 327 319 294 43 52 332 243 259 125 172 212 140 205 200 160 198 187 221 190 208 293 73 113 198 174 215 141 330 357 326 311 239 260 234 182 134 112 68 52 41 50 39
331 332 330 323 297 357 65 350 315 227 242 132 159 124 164 233 169 139 209 268 194 60 183 176 101 59 194 64 305 270 5 301 296 296 301 311 295 179 151 141 67 37 19 25 28
330 331 329 330 321 304 357 326 304 226 224 136 125 100 157 249 110 151 183 220 217 131 240 96 183 200 242 58 333 16 319 308 301 280 283 227 259 112 149 196 130 61 31 21 14
329 329 328 215 228 356 313 314 226 230 159 143 148 176 189 181 138 132 177 212 330 221 231 80 159 288 33 189 300 310 258 247 258 262 237 110 285 222 160 122 119 51 37 24 16
327 322 308 300 356 329 304 227 235 256 146 150 152 199 203 155 152 209 185 187 223 201 190 165 158 124 330 247 190 304 315 288 232 204 347 86 275 291 112 138 38 14 13 13 10
324 315 171 286 310 305 262 234 253 45 198 119 199 180 208 175 150 174 194 187 180 254 243 244 173 189 35 10 338 7 324 323 301 304 329 165 259 96 96 134 74 334 352 356 359
311 295 230 23 322 282 271 236 347 190 25 228 182 213 162 157 256 184 224 146 74 271 268 219 167 133 89 3 291 101 291 360 278 206 255 269 227 233 174 170 332 344 325 357 345
312 300 179 337 284 261 253 278 186 355 311 227 238 261 208 171 208 217 187 141 136 83 302 94 263 180 131 222 112 335 66 233 196 276 295 254 260 263 210 344 349 327 338 346 334
266 281 79 348 250 238 255 50 194 111 312 241 211 194 225 194 267 192 160 121 175 126 307 261 258 148 186 208 321 176 206 247 291 280 308 297 320 82 283 336 328 322 332 334 326
306 252 41 314 243 239 235 208 302 221 202 222 268 269 227 190 197 199 188 24 75 284 237 70 279 273 297 72 301 278 294 275 294 278 260 282 275 46 15 310 327 316 324 326 321
322 300 4 294 250 208 144 182 263 252 231 215 196 256 216 193 191 208 150 100 82 252 8 147 254 263 217 180 192 230 228 261 277 280 264 284 282 144 258 302 350 324 325 325 321
288 274 157 201 329 300 216 204 201 153 204 306 276 218 191 195 213 176 181 138 115 89 26 220 273 269 287 329 340 276 265 246 262 274 289 286 301 296 315 334 329 337 334 330 326
268 67 1 16 113 307 259 357 234 208 206 255 190 250 219 211 209 214 195 167 175 136 208 274 270 283 268 283 281 273 269 271 270 268 273 292 292 302 328 349 333 337 331 330 334
317 329 315 287 279 265 155 204 247 177 262 179 259 190 212 242 237 221 233 226 267 160 250 223 279 277 276 273 266 269 265 265 266 271 279 277 276 17 345 300 342 327 330 339 338
26 230 279 135 233 245 247 255 227 265 173 328 322 278 219 98 328 332 297 321 321 284 275 271 284 259 278 302 296 258 250 254 263 267 278 290 340 336 324 330 322 310 331 327 339